Regional Weather Roundup
Issued by NWS

Home | Current Version | Previous Version | Text Only | Print | Product List | Glossary On
Versions: 1 2 3 4 5 6 7 8 9 10 11 12 13 14 15 16 17 18 19 20 21 22 23 24 25 26 27 28 29 30 31 32 33 34 35 36 37 38 39 40 41 42 43 44 45 46 47 48 49 50
000
ASHW40 PHFO 181543
RWRHI

WEATHER ROUNDUP FOR HAWAII
NATIONAL WEATHER SERVICE HONOLULU HI
500 AM HST THU DEC 18 2014

THIS IS AN AUTOMATED REPORT THAT HAS NOT BEEN QUALITY CONTROLLED.

NOTE..."FAIR" INDICATES FEW OR NO CLOUDS BELOW 12,000 FEET WITH NO
SIGNIFICANT WEATHER AND/OR OBSTRUCTIONS TO VISIBILITY.

* - THESE SITES REPORT LIMITED FIELDS

HIZ001>004-181600-
KAUAI-NIIHAU-

CITY           SKY/WX    TMP DP  RH WIND       PRES   REMARKS
LIHUE APT      CLOUDY    73  67  81 NE18      30.18R
PORT ALLEN*      N/A     72 N/A N/A E15         N/A
POIPU*           N/A     72 N/A N/A NE9G18      N/A
PRINCEVILLE*     N/A     72 N/A N/A MISG        N/A
KOKOLE POINT*  NOT AVBL
MOLOAA DAIRY*  NOT AVBL
WAIMEA HTS*      N/A     70  63  78 N1          N/A
PUU OPAE*        N/A     63  59  88 CALM        N/A
PUU LUA*       NOT AVBL
MAKAHA RIDGE*  NOT AVBL
$$

HIZ005>011-181600-
OAHU-

CITY           SKY/WX    TMP DP  RH WIND       PRES   REMARKS
HONOLULU       PTCLDY    74  66  76 E9        30.13S
KALAELOA       PTCLDY    69  66  90 CALM      30.15R
KANEOHE MCB    MOCLDY    73  66  78 E9G20     30.16R
WHEELER FIELD  DRIZZLE   68  64  88 VRB2      30.15F
BELLOWS*         N/A    N/A N/A N/A E17         N/A
KAHUKU*          N/A    N/A N/A N/A NE8G21      N/A
WHEELER*       NOT AVBL
WAIANAE HARBOR NOT AVBL
DILLINGHAM*      N/A     66  64  94 CALM        N/A
KAHUKU TRN*      N/A     70  66  88 E12G22      N/A
KAWAILOA*        N/A     68  64  88 E9G20       N/A
KII*             N/A     75  70  83 NE18G26     N/A
MAKUA RANGE*     N/A     73  63  68 NE6G12      N/A
OAHU FOREST NW   N/A     64 -13   4 CALM        N/A
SCHOFIELD BRK*   N/A     64  63  94 MISG        N/A
SCHOFIELD S*   NOT AVBL
WAIANAE VLY*     N/A     70  64  83 SW6G21      N/A
KUAOKALA*        N/A     68  64  88 CALM        N/A
HONOULIUULI*   NOT AVBL
MOKUOLOE IS*     N/A    N/A N/A N/A MISG        N/A
PALEHUA*         N/A     73  66  78 CALM        N/A
WAIAWA PHB*    NOT AVBL
$$

HIZ012>013-181600-
MOLOKAI-

CITY           SKY/WX    TMP DP  RH WIND       PRES   REMARKS
MOLOKAI AIRPT  PTCLDY    72  67  84 NE9       30.15S
KALAUPAPA      NOT AVBL
MAKAPULAPAI*     N/A     73  68  83 E20G28      N/A
MOLOKAI 1*       N/A    N/A N/A N/A W1G7        N/A
PUU ALII*        N/A     56  56  99 E3G12       N/A
$$

HIZ016-181600-
KAHOOLAWE-

CITY           SKY/WX    TMP DP  RH WIND       PRES   REMARKS
KAHOOLAWE*       N/A     68 N/A N/A E9G21       N/A
HAKIOAWA*        N/A     69  64  85 MISG      30.55S
HONOKANAIA*      N/A     74  64  72 N8G22     30.14S
KANELOA*         N/A     73  66  78 NE18G29   29.34S
KEALIALALO*    NOT AVBL
LUA MAKIKA*    NOT AVBL
$$

HIZ014>015-181600-
LANAI-

CITY           SKY/WX    TMP DP  RH WIND       PRES   REMARKS
LANAI CITY     FAIR      68  66  93 NE21      30.16F
LANAI 1*         N/A     70  70 100 NE18G31     N/A
$$

HIZ017>028-181600-
MAUI-

CITY           SKY/WX    TMP DP  RH WIND       PRES   REMARKS
KAHULUI        CLEAR     72  65  78 NE14      30.13S
KAPALUA-W MAUI NOT AVBL
HANA AIRPORT   MOCLDY    73  66  78 E6        30.18S
HANA*            N/A     75 N/A N/A E7          N/A
HALEAKALA SUMM   N/A     48  12  23 E23         N/A
MAALAEA BAY*   NOT AVBL
HALEAKALA*     NOT AVBL
KAUPO GAP*       N/A     63  45  51 W10G21      N/A
KULA 1*          N/A    N/A N/A N/A E3          N/A
$$

HIZ023>026-181600-
BIG ISLAND OF HAWAII COAST AND LOWER SLOPES-

CITY           SKY/WX    TMP DP  RH WIND       PRES   REMARKS
KAILUA KONA    CLEAR     71  60  68 E5        30.08R
HILO           CLOUDY    69  66  90 CALM      30.14S
HONOKAA*       NOT AVBL
KAWAIHAE MWT*    N/A     75 N/A N/A E9G15       N/A
KAWAIHAE*        N/A     73 N/A N/A E3          N/A
SOUTH POINT*     N/A     68 N/A N/A NE13G18     N/A
UPOLU AIRPORT*   N/A    N/A N/A N/A E13G18      N/A
KAMUELA*       CLOUDY    63  61  94 E15       30.21R
HAKALAU*         N/A     46  43  87 SW3G10      N/A
KALOKO-HONOKO*   N/A     66  57  72 E3        30.08R
PALI 2*          N/A     63  59  88 N17G24      N/A
KEALAKOMO*       N/A     84  75  74 NE12G18     N/A  HX  92
KAUPULEHU*       N/A     64  54  68 S5          N/A
KAPAPALA*        N/A     59  56  89 CALM        N/A
LOWER KAHUKU*    N/A     57  55  94 N2G8        N/A
PUHE CS*       NOT AVBL
PUHO CS*         N/A     68  55  62 E3          N/A
PTA KEAMUKU*     N/A     55  50  82 CALM        N/A
WAIKOLOA*        N/A     64  52  63 SE9         N/A
$$

HIZ027>028-181600-
BIG ISLAND OF HAWAII INTERIOR AND SUMMMITS-

CITY           SKY/WX    TMP DP  RH WIND       PRES   REMARKS
BRADSHAW FIELD PTCLDY    48  43  81 SE5       30.40S
MK VISITOR CEN NOT AVBL
MAUNA KEA*       N/A     34 -15  12 SE6         N/A  WCI  29
MAUNA LOA*       N/A     43 -11  10 MISG        N/A
MAUNA LOA 1*   NOT AVBL
PTA KIPUKA*      N/A     45  36  70 SE3         N/A
PTA RANGE 17*    N/A     54  48  82 E12G18      N/A
PTA WEST*        N/A     52  46  82 SE8         N/A
NENE CABIN*      N/A    N/A N/A N/A NE7G14      N/A
AHUMOA*          N/A     46  34  61 E3          N/A
PTA PORTABLE*  NOT AVBL
PUU MALI*      NOT AVBL
$$

HIC003-181600-
NORTHWEST ISLANDS-

CITY           SKY/WX    TMP DP  RH WIND       PRES   REMARKS
MIDWAY ISLAND  PTCLDY    73  70  88 S14       30.11S
MIDWAY NOS*    NOT AVBL
FRENCH FRIGATE NOT AVBL
$$

PHZ110>124-180-181600-
BUOY REPORTS

STATION/POSITION TIME  TEMP    WIND        PRES    WAVE   SWELL
                       AIR SEA DIR/SP/G            HT/PER HT/DIR
                 (UTC) (F)     (DEG/KT/KT) (MB)    (FT/S) (FT/D)
BUOY 51001       NOT AVBL
BUOY 51101       1500   76 77   90/ 17/ 19 1021.7F   8/ 9   7/110
BUOY 51100       1400           90/ 16       N/A
BUOY 51003       1500   78 79   60/ 16/ 19 1018.7R   8/ 8   5
BUOY 51004       1434   76 78   60/ 19/ 21 1017.8R   8/ 8   5/ 70
BARBERS PT BUOY  NOT AVBL
WAIMEA BAY BUOY  1500      77                N/A     6/ 7   2/350
KAILUA BAY BUOY  1500      77                N/A     7/ 8   2
LANAI BUOY       1500      78                N/A     3/ 9   2/210
BARBERS PT 2     1500      78                N/A     4/ 8   2/220
PAUWELA MAUI     1500      76                N/A     7/ 8   3/340
HILO             1500      78                N/A     7/ 7   2/ 10
KANEOHE BAY BUOY 1500      77                N/A     6/ 8   2/ 20
HANALEI KAUAI    NOT AVBL
KAHULUI HARBOR   1500   73 76   50/ 14/ 18 1020.4R
HONOLULU HARBOR  1500   75      60/  5/ 15 1021.0R
KILO NALU        NOT AVBL
HILO HARBOR      1500   70     220/  3/  5 1020.4R
MOKUOLOE         1500   73      90/  9/ 12   N/A
NAWILIWILI       1500      76                N/A
WHOTS BUOY       NOT AVBL
BUOY 51028       NOT AVBL
$$

......................KEY........................................
  SKY/WX - SKY CONDITIONS/PRESENT WEATHER
  TMP    - TEMPERATURE IN FAHRENHEIT
  DWPT   - DEWPOINT IN FAHRENHEIT
  RH     - RELATIVE HUMIDITY IN PERCENT
  WIND   - DIRECTION AND SPEED /MPH FOR ISLANDS...KTS FOR BUOYS/
  PRES   - MEAN SEA LEVEL PRESSURE IN INCHES OF HG
  VSB    - VISIBILITY IN MILES
  HX     - HEAT INDEX
  WCI    - WIND CHILL INDEX
  VRB    - VARIABLE WIND DIRECTION
  N/A    - NOT AVAILABLE



USA.gov is the U.S. government's official web portal to all federal, state and local government web resources and services.